QPF
0.00 0.00 0.00 0.00 0.00 0.00 0.00 0.00 0.00 0.00 0.00 0.00 0.00 0.00 0.00 0.00 0.00 0.00 0.00 0.00 0.00 0.00 0.00 0.00 0.00 0.00 0.00 0.00 0.00 0.00 0.00 0.00 0.00 0.00 0.00 0.00 0.00 0.00 0.00 0.00 0.00 0.00 0.00 0.00 0.00 0.00 0.00
0.00 0.00 0.00 0.00 0.00 0.00 0.00 0.00 0.00 0.00 0.00 0.00 0.00 0.00 0.00 0.00 0.00 0.00 0.00 0.00 0.00 0.00 0.00 0.00 0.00 0.00 0.00 0.00 0.00 0.00 0.00 0.00 0.00 0.00 0.00 0.00 0.00 0.00 0.00 0.00 0.00 0.00 0.00 0.00 0.00 0.00 0.00
0.00 0.00 0.00 0.00 0.00 0.00 0.00 0.00 0.00 0.00 0.00 0.00 0.00 0.00 0.00 0.00 0.00 0.00 0.00 0.00 0.00 0.00 0.00 0.00 0.00 0.00 0.00 0.00 0.00 0.00 0.00 0.00 0.00 0.00 0.00 0.00 0.00 0.00 0.00 0.00 0.00 0.00 0.00 0.00 0.00 0.00 0.00
0.00 0.00 0.00 0.00 0.00 0.00 0.00 0.00 0.00 0.00 0.00 0.00 0.00 0.00 0.00 0.00 0.00 0.00 0.00 0.00 0.00 0.00 0.00 0.00 0.00 0.00 0.00 0.00 0.00 0.00 0.00 0.00 0.00 0.00 0.00 0.00 0.00 0.00 0.00 0.00 0.00 0.00 0.00 0.00 0.00 0.00 0.00
0.00 0.00 0.00 0.00 0.00 0.00 0.00 0.00 0.00 0.00 0.00 0.00 0.00 0.00 0.00 0.00 0.00 0.00 0.00 0.00 0.00 0.00 0.00 0.00 0.00 0.00 0.00 0.00 0.00 0.00 0.00 0.00 0.00 0.00 0.00 0.00 0.00 0.00 0.00 0.00 0.00 0.00 0.00 0.00 0.00 0.00 0.00
0.00 0.00 0.00 0.00 0.00 0.00 0.00 0.00 0.00 0.00 0.00 0.00 0.00 0.00 0.00 0.00 0.00 0.00 0.00 0.00 0.00 0.00 0.00 0.00 0.00 0.00 0.00 0.00 0.00 0.00 0.00 0.00 0.00 0.00 0.00 0.00 0.00 0.00 0.00 0.00 0.00 0.00 0.00 0.00 0.00 0.00 0.00
0.00 0.00 0.00 0.00 0.00 0.00 0.00 0.00 0.00 0.00 0.00 0.00 0.00 0.00 0.00 0.00 0.00 0.00 0.00 0.00 0.00 0.00 0.00 0.00 0.00 0.00 0.00 0.00 0.00 0.00 0.00 0.00 0.00 0.00 0.00 0.00 0.00 0.00 0.00 0.00 0.00 0.00 0.00 0.00 0.00 0.00 0.00
0.00 0.00 0.00 0.00 0.00 0.00 0.00 0.00 0.00 0.00 0.00 0.00 0.00 0.00 0.00 0.00 0.00 0.00 0.00 0.00 0.00 0.00 0.00 0.00 0.00 0.00 0.00 0.00 0.00 0.00 0.00 0.00 0.00 0.00 0.00 0.00 0.00 0.00 0.00 0.00 0.00 0.00 0.00 0.00 0.00 0.00 0.00
0.00 0.00 0.00 0.00 0.00 0.00 0.00 0.00 0.00 0.00 0.00 0.00 0.00 0.00 0.00 0.00 0.00 0.00 0.00 0.00 0.00 0.00 0.00 0.00 0.00 0.00 0.00 0.00 0.00 0.00 0.00 0.00 0.00 0.00 0.00 0.00 0.00 0.00 0.00 0.00 0.00 0.00 0.00 0.00 0.00 0.00 0.00
0.00 0.00 0.00 0.00 0.00 0.00 0.00 0.00 0.00 0.00 0.00 0.00 0.00 0.00 0.00 0.00 0.00 0.00 0.00 0.00 0.00 0.00 0.00 0.00 0.00 0.00 0.00 0.00 0.00 0.00 0.00 0.00 0.00 0.00 0.00 0.00 0.00 0.00 0.00 0.00 0.00 0.00 0.00 0.00 0.00 0.00 0.00
0.00 0.00 0.00 0.00 0.00 0.00 0.00 0.00 0.00 0.00 0.00 0.00 0.00 0.00 0.00 0.00 0.00 0.00 0.00 0.00 0.00 0.00 0.00 0.00 0.00 0.00 0.00 0.00 0.00 0.00 0.00 0.00 0.00 0.00 0.00 0.00 0.00 0.00 0.00 0.00 0.00 0.00 0.00 0.00 0.00 0.00 0.00
0.00 0.00 0.00 0.00 0.00 0.00 0.00 0.00 0.00 0.00 0.00 0.00 0.00 0.00 0.00 0.00 0.00 0.00 0.00 0.00 0.00 0.00 0.00 0.00 0.00 0.00 0.00 0.00 0.00 0.00 0.00 0.00 0.00 0.00 0.00 0.00 0.00 0.00 0.00 0.00 0.00 0.00 0.00 0.00 0.00 0.00 0.00
0.00 0.00 0.00 0.00 0.00 0.00 0.00 0.00 0.00 0.00 0.00 0.00 0.00 0.00 0.00 0.00 0.00 0.00 0.00 0.00 0.00 0.00 0.00 0.00 0.00 0.00 0.00 0.00 0.00 0.00 0.00 0.00 0.00 0.00 0.00 0.00 0.00 0.00 0.00 0.00 0.00 0.00 0.00 0.00 0.00 0.00 0.00
0.00 0.00 0.00 0.00 0.00 0.00 0.00 0.00 0.00 0.00 0.00 0.00 0.00 0.00 0.00 0.00 0.00 0.00 0.00 0.00 0.00 0.00 0.00 0.00 0.00 0.00 0.00 0.00 0.00 0.00 0.00 0.00 0.00 0.00 0.00 0.00 0.00 0.00 0.00 0.00 0.00 0.00 0.00 0.00 0.00 0.00 0.00
0.00 0.00 0.00 0.00 0.00 0.00 0.00 0.00 0.00 0.00 0.00 0.00 0.00 0.00 0.00 0.00 0.00 0.00 0.00 0.00 0.00 0.00 0.00 0.00 0.00 0.00 0.00 0.00 0.00 0.00 0.00 0.00 0.00 0.00 0.00 0.00 0.00 0.00 0.00 0.00 0.00 0.00 0.00 0.00 0.00 0.00 0.00
0.00 0.00 0.00 0.00 0.00 0.00 0.00 0.00 0.00 0.00 0.00 0.00 0.00 0.00 0.00 0.00 0.00 0.00 0.00 0.00 0.00 0.00 0.00 0.00 0.00 0.00 0.00 0.00 0.00 0.00 0.00 0.00 0.00 0.00 0.00 0.00 0.00 0.00 0.00 0.00 0.00 0.00 0.00 0.00 0.00 0.00 0.00
0.00 0.00 0.00 0.00 0.00 0.00 0.00 0.00 0.00 0.00 0.00 0.00 0.00 0.00 0.00 0.00 0.00 0.00 0.00 0.00 0.00 0.00 0.00 0.00 0.00 0.00 0.00 0.00 0.00 0.00 0.00 0.00 0.00 0.00 0.00 0.00 0.00 0.00 0.00 0.00 0.00 0.00 0.00 0.00 0.00 0.00 0.00
0.00 0.00 0.00 0.00 0.00 0.00 0.00 0.00 0.00 0.00 0.00 0.00 0.00 0.00 0.00 0.00 0.00 0.00 0.00 0.00 0.00 0.00 0.00 0.00 0.00 0.00 0.00 0.00 0.00 0.00 0.00 0.00 0.00 0.00 0.00 0.00 0.00 0.00 0.00 0.00 0.00 0.00 0.00 0.00 0.00 0.00 0.00
0.00 0.00 0.00 0.00 0.00 0.00 0.00 0.00 0.00 0.00 0.00 0.00 0.00 0.00 0.00 0.00 0.00 0.00 0.00 0.00 0.00 0.00 0.00 0.00 0.00 0.00 0.00 0.00 0.00 0.00 0.00 0.00 0.00 0.00 0.00 0.00 0.00 0.00 0.00 0.00 0.00 0.00 0.00 0.00 0.00 0.00 0.00
0.00 0.00 0.00 0.00 0.00 0.00 0.00 0.00 0.00 0.00 0.00 0.00 0.00 0.00 0.00 0.00 0.00 0.00 0.00 0.00 0.00 0.00 0.00 0.00 0.00 0.00 0.00 0.00 0.00 0.00 0.00 0.00 0.00 0.00 0.00 0.00 0.00 0.00 0.00 0.00 0.00 0.00 0.00 0.00 0.00 0.00 0.00
0.00 0.00 0.00 0.00 0.00 0.00 0.00 0.00 0.00 0.00 0.00 0.00 0.00 0.00 0.00 0.00 0.00 0.00 0.00 0.00 0.00 0.00 0.00 0.00 0.00 0.00 0.00 0.00 0.00 0.00 0.00 0.00 0.00 0.00 0.00 0.00 0.00 0.00 0.00 0.00 0.00 0.00 0.00 0.00 0.00 0.00 0.00
0.00 0.00 0.00 0.00 0.00 0.00 0.00 0.00 0.00 0.00 0.00 0.00 0.00 0.00 0.00 0.00 0.00 0.00 0.00 0.00 0.00 0.00 0.00 0.00 0.00 0.00 0.00 0.00 0.00 0.00 0.00 0.00 0.00 0.00 0.00 0.00 0.00 0.00 0.00 0.00 0.00 0.00 0.00 0.00 0.00 0.00 0.00
0.00 0.00 0.00 0.00 0.00 0.00 0.00 0.00 0.00 0.00 0.00 0.00 0.00 0.00 0.00 0.00 0.00 0.00 0.00 0.00 0.00 0.00 0.00 0.00 0.00 0.00 0.00 0.00 0.00 0.00 0.00 0.00 0.00 0.00 0.00 0.00 0.00 0.00 0.00 0.00 0.00 0.00 0.00 0.00 0.00 0.00 0.00
0.00 0.00 0.00 0.00 0.00 0.00 0.00 0.00 0.00 0.00 0.00 0.00 0.00 0.00 0.00 0.00 0.00 0.00 0.00 0.00 0.00 0.00 0.00 0.00 0.00 0.00 0.00 0.00 0.00 0.00 0.00 0.00 0.00 0.00 0.00 0.00 0.00 0.00 0.00 0.00 0.00 0.00 0.00 0.00 0.00 0.00 0.00
0.00 0.00 0.00 0.00 0.00 0.00 0.00 0.00 0.00 0.00 0.00 0.00 0.00 0.00 0.00 0.00 0.00 0.00 0.00 0.00 0.00 0.00 0.00 0.00 0.00 0.00 0.00 0.00 0.00 0.00 0.00 0.00 0.00 0.00 0.00 0.00 0.00 0.00 0.00 0.00 0.00 0.00 0.00 0.00 0.00 0.00 0.00
0.00 0.00 0.00 0.00 0.00 0.00 0.00 0.00 0.00 0.00 0.00 0.00 0.00 0.00 0.00 0.00 0.00 0.00 0.00 0.00 0.00 0.00 0.00 0.00 0.00 0.00 0.00 0.00 0.00 0.00 0.00 0.00 0.00 0.00 0.00 0.00 0.00 0.00 0.00 0.00 0.00 0.00 0.00 0.00 0.00 0.00 0.00
0.00 0.00 0.00 0.00 0.00 0.00 0.00 0.00 0.00 0.00 0.00 0.00 0.00 0.00 0.00 0.00 0.00 0.00 0.00 0.00 0.00 0.00 0.00 0.00 0.00 0.00 0.00 0.00 0.00 0.00 0.00 0.00 0.00 0.00 0.00 0.00 0.00 0.00 0.00 0.00 0.00 0.00 0.00 0.00 0.00 0.00 0.00
0.00 0.00 0.00 0.00 0.00 0.00 0.00 0.00 0.00 0.00 0.00 0.00 0.00 0.00 0.00 0.00 0.00 0.00 0.00 0.00 0.00 0.00 0.00 0.00 0.00 0.00 0.00 0.00 0.00 0.00 0.00 0.00 0.00 0.00 0.00 0.00 0.00 0.00 0.00 0.00 0.00 0.00 0.00 0.00 0.00 0.00 0.00
0.00 0.00 0.00 0.00 0.00 0.00 0.00 0.00 0.00 0.00 0.00 0.00 0.00 0.00 0.00 0.00 0.00 0.00 0.00 0.00 0.00 0.00 0.00 0.00 0.00 0.00 0.00 0.00 0.00 0.00 0.00 0.00 0.00 0.00 0.00 0.00 0.00 0.00 0.00 0.00 0.00 0.00 0.00 0.00 0.00 0.00 0.00
MSLP
1022.24 1021.96 1021.67 1021.40 1021.12 1020.81 1020.51 1020.20 1019.87 1019.53 1019.17 1018.83 1018.52 1018.20 1017.84 1017.44 1017.11 1016.77 1016.38 1016.05 1015.74 1015.50 1015.25 1014.93 1014.58 1014.33 1013.82 1010.56 1007.41 1008.02 1008.81 1009.17 1009.15 1008.72 1007.23 1006.47 1005.79 1005.27 1004.45 1004.31 1004.27 1004.22 1004.64 1005.18 1005.24 1004.84 1004.93
1022.45 1022.17 1021.85 1021.55 1021.23 1020.91 1020.59 1020.28 1019.93 1019.57 1019.21 1018.84 1018.49 1018.10 1017.72 1017.31 1016.91 1016.51 1016.16 1015.86 1015.57 1015.28 1014.98 1014.67 1014.38 1014.36 1012.52 1008.57 1006.86 1007.04 1007.41 1008.43 1007.89 1007.67 1006.67 1006.04 1005.40 1005.07 1004.87 1004.34 1004.18 1004.35 1004.65 1004.75 1004.91 1004.67 1004.55
1022.58 1022.28 1021.95 1021.63 1021.28 1020.99 1020.68 1020.34 1019.97 1019.57 1019.17 1018.78 1018.38 1017.99 1017.62 1017.21 1016.79 1016.37 1015.94 1015.56 1015.20 1014.81 1014.54 1014.35 1014.16 1013.43 1010.41 1007.14 1007.01 1006.85 1007.01 1007.37 1007.10 1006.95 1006.02 1005.86 1005.53 1005.44 1004.35 1004.02 1004.04 1004.15 1003.78 1003.86 1004.29 1004.45 1004.29
1022.77 1022.45 1022.12 1021.79 1021.45 1021.08 1020.72 1020.32 1019.90 1019.51 1019.11 1018.69 1018.24 1017.83 1017.44 1017.00 1016.60 1016.24 1015.81 1015.35 1014.83 1014.21 1013.83 1013.96 1013.97 1012.52 1008.19 1006.73 1006.80 1006.81 1006.52 1006.71 1006.70 1006.66 1006.22 1005.75 1006.12 1005.56 1004.62 1004.06 1004.03 1003.52 1003.13 1003.08 1003.86 1004.23 1004.32
1022.98 1022.66 1022.29 1021.94 1021.57 1021.15 1020.70 1020.29 1019.89 1019.50 1019.04 1018.56 1018.04 1017.56 1017.15 1016.75 1016.33 1015.92 1015.47 1015.04 1014.42 1013.84 1013.69 1013.72 1013.16 1010.84 1006.82 1007.68 1006.86 1006.18 1006.27 1006.15 1006.41 1006.47 1006.62 1006.42 1006.45 1005.39 1004.39 1004.03 1002.91 1002.45 1001.77 1002.21 1003.16 1004.02 1003.97
1023.13 1022.77 1022.40 1022.04 1021.65 1021.22 1020.72 1020.23 1019.77 1019.30 1018.83 1018.38 1017.93 1017.42 1016.92 1016.46 1016.02 1015.59 1015.12 1014.74 1014.17 1013.87 1013.37 1012.38 1010.81 1009.31 1006.55 1005.44 1005.36 1005.82 1005.96 1005.94 1006.14 1006.17 1006.39 1006.53 1005.71 1004.77 1004.07 1003.08 1001.52 1001.05 1001.60 1002.36 1002.61 1003.37 1003.70
1023.28 1022.92 1022.53 1022.13 1021.70 1021.25 1020.75 1020.26 1019.74 1019.20 1018.65 1018.13 1017.68 1017.17 1016.68 1016.18 1015.75 1015.42 1014.61 1013.59 1013.10 1011.74 1010.40 1007.24 1006.34 1005.63 1005.18 1004.94 1005.56 1005.63 1005.79 1005.82 1005.87 1005.83 1005.38 1005.37 1004.66 1003.43 1002.83 1002.42 1001.98 1001.97 1002.38 1002.53 1002.61 1002.87 1003.41
1023.42 1023.08 1022.70 1022.27 1021.80 1021.29 1020.75 1020.19 1019.63 1019.07 1018.47 1017.87 1017.38 1016.90 1016.38 1015.90 1015.48 1015.05 1014.41 1010.41 1008.38 1008.20 1006.80 1006.18 1005.73 1005.12 1004.97 1005.09 1004.93 1004.99 1005.42 1005.33 1005.29 1004.77 1004.78 1004.09 1003.49 1002.87 1002.57 1002.20 1002.04 1002.33 1002.37 1002.18 1002.17 1002.99 1003.02
1023.54 1023.17 1022.75 1022.32 1021.82 1021.28 1020.71 1020.08 1019.47 1018.88 1018.28 1017.64 1017.00 1016.53 1016.07 1015.56 1015.17 1014.39 1011.41 1008.79 1008.30 1007.91 1006.07 1004.29 1004.49 1004.42 1004.61 1004.97 1003.83 1004.13 1004.97 1004.56 1004.29 1004.03 1003.51 1002.90 1001.95 1002.19 1002.34 1002.03 1002.35 1002.27 1002.01 1001.74 1001.91 1002.41 1002.69
1023.60 1023.21 1022.78 1022.34 1021.81 1021.22 1020.63 1019.94 1019.22 1018.53 1017.88 1017.23 1016.64 1016.13 1015.75 1015.33 1014.99 1010.28 1009.29 1008.17 1008.23 1008.06 1005.18 1003.33 1003.59 1003.40 1003.66 1004.02 1003.16 1003.03 1004.28 1003.96 1003.53 1003.11 1002.83 1002.41 1002.24 1002.16 1002.07 1001.95 1002.25 1001.61 1001.61 1001.92 1002.05 1002.43 1001.53
1023.65 1023.25 1022.80 1022.34 1021.82 1021.22 1020.59 1019.89 1019.07 1018.26 1017.49 1016.78 1016.15 1015.68 1015.39 1015.51 1013.08 1009.59 1008.41 1008.23 1008.12 1007.72 1003.24 1002.29 1002.62 1003.21 1003.14 1003.07 1001.78 1002.87 1003.50 1003.57 1002.78 1002.59 1002.52 1001.71 1001.76 1001.64 1001.87 1001.69 1001.83 1001.62 1001.51 1001.80 1001.87 1001.89 1001.56
1023.70 1023.29 1022.80 1022.27 1021.73 1021.15 1020.48 1019.71 1018.84 1017.92 1017.04 1016.22 1015.57 1015.09 1014.87 1014.01 1012.58 1009.12 1008.75 1008.35 1008.00 1005.87 1001.39 1001.42 1002.01 1002.50 1002.31 1002.45 1001.76 1002.07 1003.00 1003.48 1002.93 1002.37 1002.08 1001.73 1001.45 1001.66 1001.42 1001.50 1001.65 1001.83 1002.07 1001.84 1001.76 1001.31 1000.38
1023.77 1023.34 1022.83 1022.26 1021.65 1020.99 1020.28 1019.53 1018.66 1017.68 1016.65 1015.63 1014.85 1014.33 1014.12 1011.13 1008.70 1008.72 1008.62 1007.87 1005.78 1002.56 1000.65 1000.58 1000.68 1001.13 1001.46 1001.44 1001.42 1002.04 1002.30 1002.52 1002.12 1001.96 1001.22 1001.21 1001.17 1001.28 1001.72 1001.27 1001.10 1001.38 1001.25 1000.67 1000.27 999.58 998.66
1023.77 1023.32 1022.79 1022.25 1021.59 1020.83 1020.06 1019.23 1018.30 1017.28 1016.15 1014.92 1014.02 1013.71 1012.12 1010.27 1009.30 1009.02 1008.42 1006.74 1003.64 1000.64 999.73 1000.01 999.98 1000.15 1000.24 1000.41 1000.55 1000.97 1001.47 1001.35 1001.57 1000.82 999.75 999.49 999.36 999.75 1000.54 1000.87 1000.23 1000.68 1000.47 999.52 998.53 997.77 996.80
1023.70 1023.24 1022.75 1022.17 1021.48 1020.73 1019.94 1019.05 1018.00 1016.78 1015.56 1014.48 1013.01 1011.42 1009.62 1009.02 1009.24 1008.97 1007.33 1004.43 1001.28 1000.24 1000.23 1000.03 999.83 999.46 999.40 999.44 999.72 1000.03 1000.17 1000.01 999.98 1000.47 999.83 998.39 998.65 999.09 999.48 1000.07 1000.64 999.98 999.98 999.93 999.09 998.41 997.56
1023.65 1023.23 1022.75 1022.16 1021.49 1020.74 1019.88 1019.00 1017.92 1016.64 1015.10 1014.44 1012.26 1008.95 1008.01 1008.63 1008.77 1008.23 1006.40 1003.31 1001.60 1001.73 1001.65 1001.01 999.65 998.96 998.41 998.65 999.15 999.11 998.98 998.90 998.93 999.33 999.83 999.00 998.82 998.92 999.38 999.99 999.82 999.80 999.47 999.15 999.00 998.38 997.52
1023.69 1023.28 1022.81 1022.22 1021.58 1020.88 1020.04 1019.09 1018.07 1016.77 1015.06 1013.58 1011.88 1007.77 1007.88 1008.08 1008.22 1007.03 1004.53 1002.14 1001.76 1001.95 1002.18 1001.20 1000.13 999.21 998.94 998.01 998.14 998.48 998.37 998.24 998.69 998.65 999.45 999.60 999.18 998.42 998.79 999.21 998.76 999.11 999.30 999.13 998.64 997.87 996.99
1023.68 1023.30 1022.85 1022.33 1021.71 1020.97 1020.15 1019.25 1018.26 1017.18 1015.40 1012.27 1010.20 1006.87 1007.59 1007.68 1006.86 1004.96 1003.38 1002.37 1003.26 1002.46 1002.32 1001.97 1001.43 1000.64 999.65 998.90 998.50 998.17 997.79 997.93 998.40 998.93 999.04 999.33 998.97 998.44 998.13 998.12 998.34 998.12 997.76 997.99 998.03 998.21 997.79
1023.60 1023.30 1022.86 1022.37 1021.85 1021.15 1020.30 1019.40 1018.40 1017.67 1017.27 1015.15 1010.40 1007.41 1007.16 1007.15 1005.28 1003.63 1003.06 1003.29 1003.22 1002.68 1002.36 1001.99 1001.58 1001.09 1000.55 1000.14 999.61 999.04 998.37 999.16 999.58 999.97 999.91 999.65 999.40 998.74 998.00 997.57 997.25 997.40 997.95 997.84 997.34 997.13 996.70
1023.50 1023.21 1022.85 1022.41 1021.88 1021.29 1020.52 1019.64 1018.71 1017.65 1017.28 1016.33 1010.96 1007.08 1006.23 1006.60 1005.67 1005.10 1003.77 1003.33 1002.97 1003.26 1003.44 1003.03 1002.67 1002.03 1001.77 1001.02 1000.54 999.76 999.09 999.24 1000.42 1000.74 1001.44 1000.85 999.63 998.78 997.69 996.86 996.83 997.42 997.60 997.93 997.58 997.00 996.64
1023.38 1023.12 1022.85 1022.50 1022.00 1021.41 1020.80 1020.02 1018.93 1017.65 1016.46 1015.98 1010.85 1008.15 1008.34 1005.70 1005.30 1005.38 1004.89 1004.45 1003.76 1003.34 1003.46 1003.62 1003.21 1002.78 1002.16 1001.40 1000.81 1000.17 1000.24 999.95 1000.58 1001.47 1001.76 1001.36 1000.35 999.92 998.97 998.24 997.80 997.88 997.92 998.07 997.87 997.70 997.36
1023.22 1023.02 1022.78 1022.45 1022.08 1021.60 1020.96 1020.27 1019.41 1018.04 1016.22 1014.25 1012.34 1011.05 1009.52 1008.11 1007.10 1006.78 1005.81 1005.14 1004.46 1004.15 1003.88 1003.90 1003.65 1003.29 1003.16 1002.85 1002.22 1001.20 1001.08 1000.54 1000.24 1000.67 1001.51 1001.32 1000.58 1000.39 999.51 999.08 998.71 998.22 998.36 998.22 998.09 998.10 997.99
1022.97 1022.88 1022.73 1022.50 1022.18 1021.81 1021.28 1020.65 1019.89 1018.97 1017.09 1014.35 1013.92 1012.57 1011.66 1008.77 1007.38 1006.66 1005.58 1005.33 1005.44 1005.54 1005.45 1005.18 1004.88 1004.77 1004.31 1004.13 1004.26 1003.39 1003.09 1002.26 1001.72 1001.23 1001.10 1001.23 1000.95 1000.61 999.72 999.96 999.14 998.36 998.62 998.44 998.19 998.00 997.95
1022.70 1022.62 1022.57 1022.43 1022.17 1021.89 1021.50 1021.00 1020.40 1019.81 1019.41 1017.18 1015.65 1014.59 1011.97 1009.02 1008.08 1007.28 1007.17 1007.43 1007.25 1006.88 1006.70 1006.09 1006.00 1005.87 1005.49 1006.00 1005.31 1004.46 1003.76 1003.05 1002.57 1002.18 1002.06 1002.00 1001.81 1001.35 1000.83 1000.58 998.94 998.68 998.45 998.31 998.15 998.04 998.02
1022.39 1022.31 1022.30 1022.26 1022.14 1021.92 1021.63 1021.21 1020.72 1020.26 1019.78 1017.78 1016.38 1015.37 1013.22 1010.84 1008.99 1008.57 1008.18 1008.07 1007.93 1007.73 1007.61 1007.38 1007.00 1006.77 1006.47 1006.59 1005.61 1004.54 1003.62 1002.87 1002.27 1002.17 1002.16 1002.30 1002.22 1001.74 1001.43 1000.53 999.52 998.95 998.80 998.78 998.53 998.36 998.95
1022.12 1022.05 1022.08 1022.10 1022.07 1021.90 1021.68 1021.38 1020.95 1020.52 1020.08 1018.69 1016.86 1016.92 1015.06 1012.77 1010.00 1010.31 1009.74 1009.07 1008.47 1007.64 1007.06 1006.83 1007.24 1007.56 1007.26 1006.45 1005.32 1004.29 1003.20 1002.56 1001.70 1001.52 1001.80 1002.00 1002.13 1002.21 1001.77 1000.95 999.51 999.29 999.14 999.67 1000.10 999.16 999.47
1021.80 1021.84 1021.93 1022.02 1022.03 1021.91 1021.70 1021.41 1021.14 1020.79 1020.35 1019.68 1017.11 1017.53 1016.05 1013.82 1011.35 1011.31 1010.14 1010.09 1009.51 1009.01 1008.05 1007.21 1007.17 1007.45 1007.23 1006.24 1004.99 1003.95 1002.98 1002.69 1002.08 1001.70 1001.51 1001.82 1002.05 1001.81 1001.45 1001.01 1000.20 1000.41 1000.14 1000.45 1000.88 1000.74 1001.13
1021.58 1021.66 1021.78 1021.92 1021.96 1021.85 1021.70 1021.46 1021.21 1020.98 1020.60 1019.78 1017.17 1017.80 1017.19 1014.70 1012.61 1012.09 1011.71 1011.35 1010.44 1009.95 1009.08 1008.11 1008.11 1007.15 1006.89 1006.11 1005.19 1003.99 1003.15 1002.64 1002.35 1002.25 1002.21 1002.30 1002.77 1002.42 1001.97 1001.61 1000.63 1000.64 1000.54 1000.66 1001.51 1001.96 1002.34
1021.36 1021.52 1021.66 1021.78 1021.80 1021.72 1021.58 1021.42 1021.21 1021.06 1020.77 1020.30 1017.60 1017.27 1017.57 1016.50 1013.55 1012.99 1012.60 1012.31 1011.80 1011.31 1010.76 1009.74 1008.72 1008.31 1007.19 1006.46 1005.44 1004.66 1003.72 1003.16 1003.09 1002.45 1002.54 1002.89 1002.83 1002.47 1002.21 1002.25 1003.02 1002.47 1002.24 1002.09 1002.68 1002.66 1002.90
Thickness
5703 5706 5709 5712 5715 5718 5721 5724 5727 5731 5735 5738 5742 5745 5749 5753 5756 5760 5764 5768 5771 5774 5777 5781 5785 5787 5795 5808 5824 5840 5834 5831 5830 5830 5829 5825 5819 5819 5810 5819 5824 5815 5818 5818 5820 5824 5821
5702 5704 5708 5711 5715 5719 5722 5725 5729 5732 5736 5739 5743 5747 5751 5755 5759 5763 5767 5770 5774 5777 5781 5784 5787 5788 5801 5804 5848 5848 5845 5836 5837 5833 5833 5834 5828 5833 5818 5820 5817 5824 5820 5819 5821 5822 5825
5701 5704 5707 5711 5715 5719 5722 5726 5729 5733 5737 5740 5744 5748 5752 5756 5760 5764 5769 5773 5777 5781 5784 5786 5788 5794 5808 5824 5847 5849 5848 5841 5845 5840 5832 5841 5841 5825 5833 5819 5834 5827 5815 5824 5821 5821 5820
5699 5702 5706 5709 5713 5717 5721 5725 5729 5733 5737 5742 5746 5750 5753 5757 5761 5765 5770 5775 5780 5785 5788 5788 5788 5799 5813 5848 5848 5845 5850 5842 5848 5847 5842 5848 5841 5829 5827 5837 5825 5817 5825 5799 5818 5820 5823
5697 5700 5704 5707 5711 5715 5720 5724 5728 5732 5737 5741 5746 5751 5755 5759 5763 5766 5771 5776 5781 5785 5788 5788 5793 5804 5816 5839 5832 5847 5848 5834 5838 5840 5838 5840 5829 5819 5827 5809 5810 5821 5811 5811 5806 5821 5817
5696 5699 5702 5705 5709 5713 5718 5722 5727 5732 5736 5741 5745 5749 5754 5758 5763 5767 5772 5776 5779 5782 5786 5793 5804 5797 5824 5826 5841 5841 5847 5842 5827 5827 5818 5814 5815 5807 5812 5811 5796 5819 5811 5809 5805 5814 5814
5694 5697 5700 5703 5707 5711 5715 5720 5725 5730 5735 5739 5744 5748 5753 5757 5762 5766 5772 5784 5787 5790 5797 5817 5822 5820 5826 5841 5842 5831 5838 5829 5825 5816 5797 5810 5797 5796 5812 5823 5827 5821 5808 5800 5813 5823 5807
5691 5694 5697 5700 5704 5709 5713 5718 5723 5728 5733 5738 5743 5747 5752 5756 5760 5765 5771 5796 5811 5811 5802 5820 5822 5824 5831 5833 5812 5824 5836 5810 5806 5794 5806 5805 5791 5818 5828 5829 5822 5813 5802 5803 5819 5818 5811
5688 5691 5695 5698 5702 5706 5711 5716 5721 5726 5730 5736 5742 5745 5750 5754 5758 5766 5788 5803 5814 5814 5798 5818 5822 5817 5817 5821 5815 5816 5822 5816 5804 5797 5804 5798 5816 5828 5820 5817 5805 5806 5802 5807 5805 5813 5816
5685 5688 5692 5695 5699 5704 5708 5713 5719 5725 5730 5735 5741 5744 5748 5752 5756 5793 5790 5807 5807 5807 5787 5804 5807 5817 5823 5821 5809 5839 5829 5818 5809 5799 5807 5807 5823 5814 5811 5807 5810 5796 5823 5813 5806 5794 5782
5681 5684 5687 5691 5695 5700 5705 5710 5717 5723 5729 5735 5741 5744 5747 5746 5766 5784 5796 5802 5804 5796 5774 5812 5811 5836 5826 5811 5828 5817 5836 5820 5803 5805 5809 5803 5808 5808 5799 5808 5817 5804 5825 5813 5809 5797 5795
5677 5680 5684 5688 5692 5697 5702 5708 5715 5722 5729 5735 5740 5744 5746 5753 5762 5789 5793 5797 5791 5768 5774 5801 5814 5805 5806 5811 5819 5825 5816 5824 5823 5809 5813 5810 5831 5818 5815 5820 5820 5821 5806 5807 5806 5800 5777
5673 5676 5680 5685 5690 5695 5700 5706 5713 5720 5729 5736 5742 5747 5749 5768 5782 5789 5790 5783 5765 5773 5819 5800 5804 5812 5805 5801 5807 5805 5799 5794 5790 5776 5784 5803 5805 5820 5818 5803 5819 5811 5797 5774 5772 5781 5784
5669 5673 5677 5681 5687 5693 5699 5706 5713 5721 5730 5738 5745 5748 5761 5771 5779 5783 5779 5767 5753 5803 5808 5821 5816 5814 5799 5809 5808 5805 5796 5789 5804 5807 5804 5792 5788 5813 5821 5806 5804 5800 5802 5790 5772 5794 5820
5666 5670 5674 5679 5684 5690 5696 5704 5712 5722 5731 5738 5750 5762 5772 5778 5776 5778 5769 5761 5787 5800 5808 5804 5809 5798 5800 5811 5810 5803 5799 5799 5810 5810 5790 5806 5796 5825 5826 5821 5811 5802 5788 5816 5798 5815 5806
5662 5666 5670 5674 5680 5686 5693 5700 5708 5719 5731 5735 5753 5773 5775 5775 5775 5771 5761 5760 5788 5796 5795 5796 5787 5807 5797 5803 5797 5800 5801 5818 5813 5822 5821 5810 5784 5814 5816 5819 5819 5807 5823 5790 5797 5763 5765
5657 5661 5665 5670 5675 5681 5688 5695 5703 5713 5726 5738 5750 5766 5772 5775 5772 5761 5757 5780 5788 5796 5791 5786 5790 5796 5800 5808 5807 5799 5801 5819 5821 5819 5819 5808 5798 5804 5812 5797 5798 5799 5792 5799 5807 5810 5790
5653 5657 5661 5665 5670 5676 5682 5689 5696 5704 5718 5742 5756 5756 5770 5772 5748 5767 5767 5781 5751 5779 5788 5782 5786 5788 5792 5801 5798 5799 5804 5812 5823 5819 5797 5810 5799 5782 5797 5823 5826 5820 5815 5812 5784 5774 5796
5650 5653 5657 5661 5664 5669 5676 5682 5689 5694 5697 5713 5743 5756 5770 5764 5743 5761 5772 5765 5769 5770 5773 5774 5774 5785 5791 5782 5774 5791 5803 5803 5805 5800 5791 5802 5782 5767 5782 5811 5826 5806 5809 5814 5823 5822 5800
5646 5648 5651 5654 5658 5662 5667 5674 5681 5689 5691 5700 5734 5743 5756 5752 5757 5744 5750 5753 5754 5766 5757 5764 5763 5773 5767 5767 5779 5775 5786 5793 5792 5791 5772 5787 5785 5779 5777 5800 5814 5790 5799 5804 5807 5795 5800
5642 5644 5646 5648 5651 5656 5660 5665 5674 5683 5692 5696 5731 5735 5728 5739 5743 5738 5742 5740 5738 5741 5755 5755 5748 5753 5754 5750 5761 5764 5773 5779 5777 5764 5770 5772 5754 5770 5783 5796 5799 5792 5790 5791 5786 5794 5780
5637 5638 5640 5642 5645 5648 5653 5657 5664 5674 5688 5701 5702 5702 5717 5719 5725 5717 5713 5723 5728 5734 5739 5734 5733 5743 5744 5736 5745 5746 5752 5764 5762 5769 5758 5767 5746 5758 5756 5777 5779 5773 5780 5784 5786 5785 5783
5634 5634 5634 5636 5638 5640 5643 5647 5652 5658 5671 5690 5688 5694 5688 5704 5713 5712 5718 5721 5717 5719 5721 5726 5723 5721 5721 5724 5731 5743 5746 5752 5753 5750 5748 5747 5745 5740 5732 5755 5762 5744 5763 5768 5774 5785 5782
5631 5630 5630 5630 5631 5632 5634 5636 5639 5641 5643 5656 5663 5666 5678 5691 5699 5700 5700 5696 5692 5697 5693 5705 5709 5701 5712 5719 5723 5728 5729 5732 5735 5737 5743 5726 5726 5730 5718 5732 5702 5756 5784 5780 5769 5776 5782
5628 5627 5625 5624 5623 5622 5623 5624 5626 5627 5630 5642 5650 5652 5663 5669 5688 5684 5686 5682 5684 5685 5679 5679 5686 5695 5703 5694 5688 5688 5698 5704 5714 5724 5724 5727 5717 5707 5698 5707 5729 5747 5758 5754 5752 5753 5767
5623 5622 5619 5617 5615 5614 5614 5614 5615 5616 5617 5626 5637 5633 5642 5649 5668 5662 5661 5668 5665 5672 5676 5679 5682 5682 5680 5675 5677 5665 5670 5688 5693 5703 5719 5717 5715 5699 5696 5682 5687 5733 5755 5753 5740 5717 5757
5617 5615 5612 5609 5606 5605 5604 5604 5603 5603 5604 5606 5622 5616 5624 5632 5655 5648 5652 5647 5657 5654 5657 5666 5666 5661 5667 5660 5663 5667 5672 5688 5673 5677 5688 5685 5687 5680 5687 5682 5700 5725 5738 5738 5687 5708 5730
5612 5609 5606 5602 5598 5596 5594 5592 5591 5590 5590 5593 5610 5602 5603 5619 5632 5635 5635 5630 5638 5638 5635 5649 5646 5652 5651 5648 5655 5665 5667 5676 5673 5679 5675 5672 5660 5664 5678 5670 5669 5724 5720 5699 5704 5706 5709
5605 5601 5597 5593 5589 5587 5584 5582 5580 5577 5577 5578 5597 5594 5590 5592 5616 5620 5620 5621 5622 5623 5622 5628 5632 5631 5644 5643 5654 5657 5658 5666 5658 5652 5679 5654 5667 5666 5676 5670 5674 5689 5691 5698 5695 5691 5695